"2022-09-22 00:01:00",3124485,0.9406666,358.1999,2.166452,0.037677,0.99,0,0.612,340.2667,0.8538869,0.0122202,0.63,0,-999,0,5.313,98.4,5.469,5.417,0.2,0,0,4.532,13.25,0.2,102.5721,3.288,3.29,3.288,100,0,0,0,282.7,65.01,65.01
"2022-09-22 00:02:00",3124486,0.8913333,356.8007,2.226687,0.02872087,0.95,0,0.5453333,330.9352,4.357734,0.02390723,0.58,0,-999,0,5.393,99.3,5.534,5.469,0.2,0,0,4.514,13.25,0.2,102.5734,3.29,3.29,3.288,100,0,0,0,282.7,65.01,65.01
"2022-09-22 00:03:00",3124487,0.8066666,349.2,0.7482283,0.03359894,0.87,0,0.4446667,321.0002,2.033022,0.05004887,0.52,0,-999,0,5.327,99.4,5.488,5.43,0.2,0,0,4.514,13.24,0.2,102.5706,3.288,3.288,3.286,100,0,0,0,282.7,65,65.01
"2022-09-22 00:04:00",3124488,0.6706666,351.866,2.65459,0.05555378,0.77,0,0.31,312.6665,1.776192,0.0265832,0.36,0,-999,0,5.193,99.3,5.402,5.369,0.2,0,0,4.514,13.24,0.2,102.5767,3.286,3.288,3.286,100,0,0,0,282.7,65.01,65.01
"2022-09-22 00:05:00",3124489,0.5746667,358.2,1.641151,0.02246973,0.61,0,0.2133334,298.1275,9.2367,0.02494438,0.26,0,-999,0,5.107,99.5,5.36,5.328,0.2,0,0,4.496,13.25,0.2,102.5776,3.288,3.288,3.286,100,0,0,0,282.7,65.01,65.01
"2022-09-22 00:06:00",3124490,0.4926666,4.000101,2.503236,0.02694851,0.54,0,0.1353333,270.5287,4.482862,0.01257864,0.16,0,-999,0,5.1,99.3,5.302,5.275,0.2,0,0,4.493,13.25,0.2,102.5725,3.287,3.288,3.287,100,0,0,0,282.7,65.01,65.01
"2022-09-22 00:07:00",3124491,0.388,3.533335,0.7175209,0.02006655,0.43,0,0.1106667,258.7996,2.761196,0.01388844,0.13,0,-999,0,5.067,98.6,5.241,5.215,0.2,0,0,4.493,13.25,0.2,102.5781,3.288,3.288,3.286,100,0,0,0,282.7,65.01,65.01
"2022-09-22 00:08:00",3124492,0.3433333,358.7332,1.34015,0.01577621,0.37,0,0.09400001,255.5932,7.227783,0.004898978,0.1,0,-999,0,5,98,5.198,5.166,0.2,0,0,4.472,13.25,0.2,102.5786,3.286,3.288,3.286,100,0,0,0,282.7,65,65.01
"2022-09-22 00:09:00",3124493,0.3273333,2.066563,1.481469,0.01569147,0.35,0,0.08333334,270.5555,8.178535,0.004714047,0.09,0,-999,0,5,98.1,5.155,5.113,0.2,0,0,4.471,13.25,0.2,102.5775,3.286,3.287,3.286,100,0,0,0,282.7,65,65.01
"2022-09-22 00:10:00",3124494,0.362,5.733228,1.181159,0.01423611,0.38,0,0.09333335,296.3157,9.511514,0.007888105,0.11,0,-999,0,4.927,98,5.118,5.092,0.2,0,0,4.469,13.25,0.2,102.5754,3.286,3.288,3.286,100,0,0,0,282.7,65.01,65.01
"2022-09-22 00:11:00",3124495,0.3353333,16.19825,6.144578,0.01667999,0.36,0,0.09933335,323.9219,7.71862,0.008537496,0.11,0,-999,0,4.9,98.3,5.079,5.032,0.2,0,0,4.451,13.24,0.2,102.5692,3.286,3.288,3.286,100,0,0,0,282.7,65,65.01
"2022-09-22 00:12:00",3124496,0.2913333,19.20066,3.543039,0.01746107,0.33,0,0.08199999,333.5335,2.753377,0.01681269,0.1,0,-999,0,4.9,98.6,5.078,5.023,0.2,0,0,4.447,13.25,0.2,102.5617,3.286,3.288,3.286,100,0,0,0,282.7,65.01,65.01
"2022-09-22 00:13:00",3124497,0.208,8.695263,9.009552,0.03081126,0.26,0,0.08266667,267.0267,24.5166,0.03315955,0.15,0,-999,0,4.9,98.7,5.045,4.994,0.2,0,0,4.429,13.25,0.2,102.5633,3.286,3.286,3.286,100,0,0,0,282.7,65,65.01
"2022-09-22 00:14:00",3124498,0.1473333,326.4061,10.66635,0.01436044,0.17,0,0.2333333,225.7996,2.534931,0.04496912,0.29,0,-999,0,4.9,98.5,4.993,4.949,0.2,0,0,4.428,13.25,0.2,102.567,3.286,3.288,3.285,100,0,0,0,282.7,65.01,65.01
"2022-09-22 00:15:00",3124499,0.08800001,325.0682,16.72036,0.01469694,0.11,0,0.278,224.3999,1.540547,0.0116619,0.29,0,-999,0,4.9,98.9,4.947,4.901,0.2,0,0,4.421,13.25,0.2,102.5678,3.286,3.288,3.286,100,0,0,0,282.7,65.01,65.01
"2022-09-22 00:16:00",3124500,0.07733333,30.43716,41.60062,0.01123487,0.1,0,0.2726666,219.1334,2.604173,0.03315955,0.34,0,-999,0,4.9,98.5,4.931,4.895,0.2,0,0,4.408,13.25,0.2,102.5641,3.285,3.286,3.285,100,0,0,0,282.7,65.01,65.01
"2022-09-22 00:17:00",3124501,0.048,158.6234,52.51112,0.0228619,0.08,0,0.4506667,206.2661,4.106114,0.06777085,0.54,0,-999,0,4.913,99.1,4.967,4.914,0.2,0,0,4.4,13.25,0.2,102.5634,3.286,3.286,3.284,100,0,0,0,282.7,65.01,65.01
"2022-09-22 00:18:00",3124502,0.078,220.4018,6.329696,0.008326667,0.09,0,0.4773333,204.2003,2.508357,0.04739433,0.54,0,-999,0,5,99.7,5.032,5.028,0.2,0,0,4.385,13.24,0.2,102.5673,3.283,3.286,3.282,100,0,0,0,282.7,65,65.01
"2022-09-22 00:19:00",3124503,0.07133333,184.0924,21.95839,0.004988878,0.08,0,0.322,206.2667,0.9282314,0.03208322,0.38,0,-999,0,5.047,100,5.107,5.136,0.2,0,0,4.385,13.25,0.2,102.5627,3.286,3.287,3.284,100,0,0,0,282.7,65.01,65.01
"2022-09-22 00:20:00",3124504,0.06266667,132.3461,10.69001,0.005734884,0.07,0,0.236,209.8667,2.125057,0.01254326,0.26,0,-999,0,5.1,100.8,5.172,5.192,0.2,0,0,4.385,13.24,0.2,102.5636,3.286,3.286,3.284,100,0,0,0,282.7,65,65.01
"2022-09-22 00:21:00",3124505,0.036,153.8362,13.41693,0.009521902,0.06,0,0.2126667,223.2637,5.037448,0.009285592,0.22,0,-999,0,5.047,99.8,5.252,5.245,0.2,0,0,4.385,13.24,0.2,102.5623,3.285,3.287,3.283,100,0,0,0,282.7,65,65.01
"2022-09-22 00:22:00",3124506,0.03,201.7019,58.03847,0.007302967,0.04,0,0.236,237.2665,1.948169,0.02091251,0.26,0,-999,0,5,98.4,5.313,5.286,0.2,0,0,4.38,13.24,0.2,102.5618,3.284,3.286,3.283,100,0,0,0,282.7,65.01,65.01
"2022-09-22 00:23:00",3124507,0.02733334,286.1629,32.37597,0.006798693,0.04,0,0.226,243.6654,3.418361,0.01540563,0.24,0,-999,0,5,98.1,5.293,5.218,0.2,0,0,4.365,13.25,0.2,102.5663,3.286,3.286,3.284,100,0,0,0,282.7,65,65.01
"2022-09-22 00:24:00",3124508,0.038,350.8538,7.305665,0.01275409,0.07,0,0.1766667,253.2654,4.006921,0.006992059,0.19,0,-999,0,5.04,99.3,5.242,5.216,0.2,0,0,4.365,13.24,0.2,102.557,3.282,3.286,3.282,100,0,0,0,282.7,65,65.01
"2022-09-22 00:25:00",3124509,0.1206667,11.20504,5.046854,0.03837824,0.19,0,0.1613333,297.5334,18.2033,0.01407914,0.19,0,-999,0,5.1,99.8,5.231,5.22,0.2,0,0,4.365,13.24,0.2,102.5577,3.284,3.284,3.282,100,0,0,0,282.7,65,65.01
"2022-09-22 00:26:00",3124510,0.2433333,12.66349,3.588546,0.02649948,0.29,0,0.238,339.5968,6.875427,0.009797961,0.25,0,-999,0,5.1,100.2,5.177,5.161,0.2,0,0,4.363,13.25,0.2,102.5535,3.286,3.286,3.285,100,0,0,0,282.7,65,65
"2022-09-22 00:27:00",3124511,0.3273333,21.20056,3.467308,0.02931818,0.36,0,0.2726666,1.402786,3.825285,0.01611073,0.31,0,-999,0,5.1,99.5,5.142,5.108,0.2,0,0,4.344,13.24,0.2,102.5609,3.284,3.285,3.283,100,0,0,0,282.7,65,65
"2022-09-22 00:28:00",3124512,0.4186667,22.071,5.296099,0.02679967,0.46,0,0.3373333,3.599898,2.303736,0.006798686,0.35,0,-999,0,5.153,99.1,5.157,5.126,0.2,0,0,4.342,13.24,0.2,102.5584,3.284,3.286,3.282,100,0,0,0,282.7,65,65
"2022-09-22 00:29:00",3124513,0.4906667,29.7331,2.541879,0.02080598,0.54,0,0.3553333,6.199145,3.310207,0.01257864,0.38,0,-999,0,5.2,98.9,5.224,5.187,0.2,0,0,4.342,13.24,0.2,102.5525,3.284,3.285,3.283,100,0,0,0,282.7,65,65
"2022-09-22 00:30:00",3124514,0.5226667,28.80118,3.505685,0.01062492,0.54,0,0.3693334,13.53485,3.073516,0.01181336,0.39,0,-999,0,5.2,98.9,5.276,5.238,0.2,0,0,4.324,13.25,0.2,102.5551,3.285,3.286,3.283,100,0,0,0,282.7,65.01,65
"2022-09-22 00:31:00",3124515,0.5106667,24.4002,3.0285,0.02048305,0.55,0,0.3333333,358.4077,7.843275,0.01988858,0.37,0,-999,0,5.207,99,5.326,5.288,0.2,0,0,4.322,13.24,0.2,102.5555,3.284,3.286,3.282,100,0,0,0,282.7,65,65
"2022-09-22 00:32:00",3124516,0.5113333,23.1335,2.604211,0.03422799,0.57,0,0.3766667,321.5229,9.355879,0.00869226,0.39,0,-999,0,5.247,98.9,5.332,5.302,0.2,0,0,4.314,13.25,0.2,102.5544,3.284,3.286,3.284,100,0,0,0,282.7,65,65
"2022-09-22 00:33:00",3124517,0.4026666,8.666801,7.207875,0.02862787,0.46,0,0.4053333,304.0666,2.047994,0.02679967,0.46,0,-999,0,5.133,97.8,5.241,5.199,0.2,0,0,4.301,13.24,0.2,102.5572,3.284,3.284,3.282,100,0,0,0,282.7,65,65
"2022-09-22 00:34:00",3124518,0.34,4.068344,4.822188,0.04531372,0.43,0,0.416,298.7339,3.355464,0.04498889,0.49,0,-999,0,4.96,97.7,5.106,5.059,0.2,0,0,4.299,13.25,0.2,102.5555,3.284,3.285,3.283,100,0,0,0,282.7,65,65
"2022-09-22 00:35:00",3124519,0.3640001,359.4656,6.571074,0.07525954,0.45,0,0.4439999,305.0667,1.236375,0.1011797,0.57,0,-999,0,4.9,98.4,5.05,5.005,0.2,0,0,4.298,13.24,0.2,102.5511,3.284,3.286,3.284,100,0,0,0,282.7,65,65
"2022-09-22 00:36:00",3124520,0.324,352.1863,5.723616,0.06550318,0.42,0,0.3966667,319.1378,4.527514,0.09630968,0.5,0,-999,0,4.9,98.9,5.018,4.967,0.2,0,0,4.279,13.24,0.2,102.555,3.284,3.286,3.284,100,0,0,0,282.7,65,65
"2022-09-22 00:37:00",3124521,0.4299999,351.6008,3.281643,0.01316561,0.45,0,0.3486667,324.9998,1.861771,0.04499876,0.45,0,-999,0,4.9,99.6,5.025,4.973,0.2,0,0,4.27,13.23,0.2,102.5594,3.284,3.286,3.282,100,0,0,0,282.7,65,65
"2022-09-22 00:38:00",3124522,0.48,343.3333,1.577528,0.01712698,0.5,0,0.4293333,331.4665,2.499516,0.02743882,0.46,0,-999,0,5,99.8,5.066,4.975,0.2,0,0,4.256,13.24,0.2,102.5517,3.282,3.284,3.282,100,0,0,0,282.7,65,65
"2022-09-22 00:39:00",3124523,0.378,349.5954,4.093564,0.03833188,0.45,0,0.2953334,336.8689,4.976297,0.03593821,0.38,0,-999,0,5,99.9,5.083,5.007,0.2,0,0,4.256,13.24,0.2,102.5526,3.283,3.284,3.281,100,0,0,0,282.7,65,65
"2022-09-22 00:40:00",3124524,0.3466667,353.2316,8.32376,0.02054805,0.37,0,0.294,308.4607,5.081673,0.02360791,0.33,0,-999,0,4.98,99.8,5.064,5.013,0.2,0,0,4.244,13.24,0.2,102.5515,3.282,3.284,3.282,100,0,0,0,282.7,65,65
"2022-09-22 00:41:00",3124525,0.2613333,320.662,4.025476,0.01892676,0.29,0,0.4306667,299.602,5.275369,0.05118158,0.51,0,-999,0,4.94,99.5,5.06,5.036,0.2,0,0,4.236,13.25,0.2,102.5517,3.282,3.286,3.282,100,0,0,0,282.7,65.01,65
"2022-09-22 00:42:00",3124526,0.1813333,316.1329,2.390538,0.04544105,0.25,0,0.388,294.3236,5.064098,0.03059411,0.44,0,-999,0,4.867,98.5,4.989,4.967,0.2,0,0,4.216,13.25,0.2,102.5543,3.282,3.283,3.282,100,0,0,0,282.7,65,65
"2022-09-22 00:43:00",3124527,0.06066666,269.7106,44.16313,0.02462158,0.1,0,0.1886667,297.515,11.15022,0.04730986,0.3,0,-999,0,4.8,98.6,4.922,4.894,0.2,0,0,4.213,13.23,0.2,102.5525,3.282,3.284,3.282,100,0,0,0,282.7,65,65
"2022-09-22 00:44:00",3124528,0.134,116.8506,14.83566,0.0610792,0.22,0,0.108,218.7974,36.01661,0.008326662,0.12,0,-999,0,4.8,99.2,4.908,4.889,0.2,0,0,4.213,13.24,0.2,102.5498,3.283,3.284,3.283,100,0,0,0,282.7,65,65
"2022-09-22 00:45:00",3124529,0.3073333,94.59861,3.773207,0.03696245,0.35,0,0.08,126.5885,15.33925,0.01032796,0.1,0,-999,0,4.767,98.5,4.853,4.817,0.2,0,0,4.201,13.25,0.2,102.5495,3.284,3.284,3.283,100,0,0,0,282.7,65,65
"2022-09-22 00:46:00",3124530,0.3519999,87.93404,2.791762,0.0122202,0.38,0,0.144,106.9346,8.868842,0.01451437,0.16,0,-999,0,4.693,98.3,4.793,4.762,0.2,0,0,4.193,13.25,0.2,102.5541,3.283,3.284,3.283,100,0,0,0,282.7,65,65
"2022-09-22 00:47:00",3124531,0.3226666,72.73454,5.789082,0.02815828,0.37,0,0.1533333,79.31065,11.97917,0.008692268,0.17,0,-999,0,4.613,98.5,4.816,4.783,0.2,0,0,4.181,13.25,0.2,102.5548,3.283,3.284,3.283,100,0,0,0,282.7,65,65
"2022-09-22 00:48:00",3124532,0.3006667,57.86814,3.073101,0.02768072,0.33,0,0.1446667,44.97784,8.635257,0.01454495,0.17,0,-999,0,4.7,98.7,4.798,4.769,0.2,0,0,4.17,13.24,0.2,102.5476,3.283,3.284,3.281,100,0,0,0,282.7,65,65
"2022-09-22 00:49:00",3124533,0.3,69.85014,7.599172,0.02804758,0.34,0,0.1306667,88.01582,23.48403,0.0308689,0.18,0,-999,0,4.62,98.2,4.781,4.744,0.2,0,0,4.161,13.24,0.2,102.5487,3.283,3.286,3.283,100,0,0,0,282.7,65,65
"2022-09-22 00:50:00",3124534,0.1626667,96.26559,6.542971,0.0321386,0.24,0,0.1013333,167.0629,11.43563,0.01257864,0.12,0,-999,0,4.573,97.7,4.715,4.633,0.2,0,0,4.15,13.25,0.2,102.5447,3.282,3.284,3.282,100,0,0,0,282.7,65,65
"2022-09-22 00:51:00",3124535,0.108,95.65849,7.542723,0.01641137,0.13,0,0.1073333,185.9524,7.710118,0.0148174,0.13,0,-999,0,4.5,98.1,4.629,4.584,0.2,0,0,4.146,13.25,0.2,102.5521,3.283,3.284,3.282,100,0,0,0,282.7,65,65
"2022-09-22 00:52:00",3124536,0.07333334,93.07008,4.105062,0.006992064,0.09,0,0.1166667,162.5318,3.116217,0.01776389,0.14,0,-999,0,4.433,97.9,4.56,4.518,0.2,0,0,4.127,13.24,0.2,102.5509,3.284,3.284,3.281,100,0,0,0,282.7,65,65
"2022-09-22 00:53:00",3124537,0.062,136.4059,38.5066,0.0110755,0.08,0,0.174,181.8234,9.615758,0.028,0.22,0,-999,0,4.4,97.8,4.493,4.441,0.2,0,0,4.127,13.24,0.2,102.543,3.283,3.284,3.282,100,0,0,0,282.7,65,65
"2022-09-22 00:54:00",3124538,0.07866668,206.5643,11.15338,0.009568468,0.09,0,0.2026667,200.5329,3.630109,0.009285589,0.22,0,-999,0,4.4,98.3,4.484,4.392,0.2,0,0,4.122,13.25,0.2,102.5528,3.283,3.284,3.283,100,0,0,0,282.7,65,65
"2022-09-22 00:55:00",3124539,0.04733333,283.5376,54.30408,0.01611073,0.07,0,0.142,217.3327,6.757215,0.02454927,0.19,0,-999,0,4.353,98.5,4.482,4.395,0.2,0,0,4.107,13.24,0.2,102.5441,3.282,3.284,3.282,100,0,0,0,282.7,65,65
"2022-09-22 00:56:00",3124540,0.04,357.7561,12.63989,0.01095445,0.05,0,0.1306667,241.7444,6.261259,0.01651935,0.15,0,-999,0,4.3,98.5,4.497,4.399,0.2,0,0,4.094,13.25,0.2,102.5477,3.283,3.284,3.282,100,0,0,0,282.7,65,65
"2022-09-22 00:57:00",3124541,0.1326667,359.4064,4.825592,0.04999555,0.21,0,0.1293333,287.8025,21.26624,0.0254209,0.17,0,-999,0,4.3,98.9,4.496,4.42,0.2,0,0,4.084,13.24,0.2,102.5458,3.283,3.283,3.282,100,0,0,0,282.7,65,65
"2022-09-22 00:58:00",3124542,0.2846666,355.3327,2.674668,0.03403266,0.34,0,0.2346667,331.3339,4.598041,0.03201389,0.27,0,-999,0,4.3,99.1,4.452,4.39,0.2,0,0,4.074,13.24,0.2,102.5414,3.283,3.284,3.282,100,0,0,0,282.7,65,65
"2022-09-22 00:59:00",3124543,0.374,1.133382,1.309866,0.01818424,0.39,0,0.2646666,346.0676,2.743429,0.004988886,0.27,0,-999,0,4.3,98.7,4.437,4.365,0.2,0,0,4.063,13.25,0.2,102.539,3.284,3.284,3.282,100,0,0,0,282.7,65,65
"2022-09-22 01:00:00",3124544,0.376,0.2650593,3.128808,0.01199999,0.39,0,0.2533333,346.7335,2.015316,0.01247219,0.28,0,-999,0,4.307,98.5,4.437,4.365,0.2,0,0,4.043,13.25,0.2,102.5426,3.282,3.284,3.282,100,0,0,0,282.7,65,65
"2022-09-22 01:01:00",3124545,0.3506666,3.200745,2.856241,0.01611072,0.38,0,0.2626667,345.6671,2.598599,0.01651935,0.29,0,-999,0,4.3,98.8,4.443,4.368,0.2,0,0,4.042,13.24,0.2,102.5389,3.28,3.283,3.28,100,0,0,0,282.7,65,65
"2022-09-22 01:02:00",3124546,0.3113333,6.00002,1.095445,0.01820867,0.34,0,0.194,322.5865,6.657614,0.03498571,0.25,0,-999,0,4.3,99.2,4.451,4.387,0.2,0,0,4.025,13.24,0.2,102.5337,3.283,3.284,3.28,100,0,0,0,282.7,65,65
"2022-09-22 01:03:00",3124547,0.2853333,6.134792,3.029504,0.004988872,0.29,0,0.156,320.3331,1.885391,0.004898974,0.16,0,-999,0,4.3,99.8,4.492,4.446,0.2,0,0,4.012,13.23,0.2,102.535,3.279,3.283,3.279,100,0,0,0,282.7,65,65
"2022-09-22 01:04:00",3124548,0.2853333,357.7999,1.375755,0.01146976,0.3,0,0.13,317.3998,1.818461,0.01316561,0.16,0,-999,0,4.3,100,4.501,4.47,0.2,0,0,3.999,13.24,0.2,102.5305,3.28,3.282,3.28,100,0,0,0,282.7,65,65
"2022-09-22 01:05:00",3124549,0.2606667,4.067708,2.644309,0.004422171,0.27,0,0.1126667,290.3651,10.88381,0.004422165,0.12,0,-999,0,4.32,99.8,4.486,4.47,0.2,0,0,3.982,13.24,0.2,102.5356,3.281,3.282,3.28,100,0,0,0,282.7,65,65
"2022-09-22 01:06:00",3124550,0.246,11.99888,4.146194,0.004898982,0.25,0,0.116,276.4,1.704585,0.01143095,0.13,0,-999,0,4.36,99.5,4.482,4.469,0.2,0,0,3.972,13.24,0.2,102.5326,3.28,3.282,3.278,100,0,0,0,282.7,65,65
"2022-09-22 01:07:00",3124551,0.2673333,27.80104,3.16594,0.01768867,0.3,0,0.07733334,292.6138,8.386596,0.0085375,0.09,0,-999,0,4.32,99.1,4.451,4.447,0.2,0,0,3.956,13.25,0.2,102.5306,3.281,3.282,3.279,100,0,0,0,282.7,65,65
"2022-09-22 01:08:00",3124552,0.3053333,22.20002,1.326718,0.01783879,0.34,0,0.1053333,306.8636,5.535946,0.01783878,0.13,0,-999,0,4.3,98.9,4.427,4.412,0.2,0,0,3.95,13.23,0.2,102.5286,3.282,3.282,3.278,100,0,0,0,282.7,65,65
"2022-09-22 01:09:00",3124553,0.3519999,21.26667,1.878628,0.01557776,0.39,0,0.1546666,318.6,2.122844,0.017075,0.17,0,-999,0,4.3,98.9,4.372,4.354,0.2,0,0,3.934,13.24,0.2,102.5265,3.28,3.282,3.28,100,0,0,0,282.7,65,65
"2022-09-22 01:10:00",3124554,0.398,18.99998,0.8168735,0.00748332,0.41,0,0.226,330.3304,6.547862,0.0192527,0.25,0,-999,0,4.287,98.8,4.349,4.266,0.2,0,0,3.914,13.24,0.2,102.5232,3.282,3.282,3.28,100,0,0,0,282.7,65,65
"2022-09-22 01:11:00",3124555,0.3913334,19.93332,1.062707,0.0149963,0.41,0,0.1893334,349.5324,3.59289,0.02235074,0.22,0,-999,0,4.22,98.4,4.315,4.223,0.2,0,0,3.905,13.24,0.2,102.5239,3.28,3.283,3.28,100,0,0,0,282.7,65,65
"2022-09-22 01:12:00",3124556,0.3613334,23.93325,2.143548,0.01707499,0.38,0,0.1273333,359.1366,5.174348,0.01181336,0.15,0,-999,0,4.22,98.6,4.302,4.23,0.2,0,0,3.888,13.24,0.2,102.5213,3.281,3.282,3.279,100,0,0,0,282.7,65,65
"2022-09-22 01:13:00",3124557,0.3313333,14.73325,2.322326,0.01746107,0.36,0,0.1546667,347.4659,3.98037,0.008844331,0.17,0,-999,0,4.3,98.9,4.274,4.236,0.2,0,0,3.87,13.23,0.2,102.5193,3.281,3.281,3.278,100,0,0,0,282.7,65,65
"2022-09-22 01:14:00",3124558,0.3586666,5.532829,3.612254,0.01454495,0.37,0,0.2093333,347.1334,1.585945,0.02931817,0.26,0,-999,0,4.3,99.1,4.274,4.241,0.2,0,0,3.866,13.24,0.2,102.5225,3.279,3.283,3.279,100,0,0,0,282.7,65,65
"2022-09-22 01:15:00",3124559,0.3946667,359.4669,1.892543,0.01746106,0.42,0,0.2313333,342.5961,4.512337,0.01309792,0.26,0,-999,0,4.3,99,4.288,4.225,0.2,0,0,3.85,13.25,0.2,102.5208,3.28,3.281,3.279,100,0,0,0,282.7,65,65
"2022-09-22 01:16:00",3124560,0.382,354.8662,2.028538,0.01375984,0.41,0,0.246,342.133,1.746119,0.01019804,0.26,0,-999,0,4.3,98.4,4.278,4.222,0.2,0,0,3.827,13.24,0.2,102.5204,3.282,3.282,3.279,100,0,0,0,282.7,65,65
"2022-09-22 01:17:00",3124561,0.4046667,5.60053,2.870207,0.01820866,0.43,0,0.2146667,347.0673,2.515261,0.0149963,0.24,0,-999,0,4.3,98.3,4.272,4.226,0.2,0,0,3.817,13.25,0.2,102.5165,3.282,3.282,3.28,100,0,0,0,282.7,65,65
"2022-09-22 01:18:00",3124562,0.468,6.533451,2.679829,0.02737396,0.5,0,0.2206667,342.3328,2.724073,0.007717224,0.24,0,-999,0,4.3,97.7,4.272,4.225,0.2,0,0,3.807,13.24,0.2,102.5161,3.281,3.282,3.279,100,0,0,0,282.7,65,65
"2022-09-22 01:19:00",3124563,0.4913334,12.99992,1.931969,0.02061283,0.52,0,0.186,351.1982,3.562148,0.01404754,0.21,0,-999,0,4.227,98.3,4.32,4.226,0.2,0,0,3.787,13.24,0.2,102.5152,3.281,3.281,3.278,100,0,0,0,282.7,65,65
"2022-09-22 01:20:00",3124564,0.4833333,17.0666,1.842529,0.020221,0.52,0,0.1373333,5.467476,2.499123,0.01842703,0.16,0,-999,0,4.2,98.9,4.349,4.255,0.2,0,0,3.784,13.25,0.2,102.5159,3.282,3.282,3.28,100,0,0,0,282.7,65,65
"2022-09-22 01:21:00",3124565,0.402,10.39976,2.245129,0.02103964,0.43,0,0.05533333,5.09764,14.53391,0.01961859,0.08,0,-999,0,4.2,99.1,4.345,4.281,0.2,0,0,3.768,13.25,0.2,102.5135,3.279,3.282,3.279,100,0,0,0,282.7,65,65
"2022-09-22 01:22:00",3124566,0.3753333,2.93295,2.815705,0.01146976,0.39,0,0.06,342.9224,20.91305,0.0296648,0.11,0,-999,0,4.2,99,4.309,4.281,0.2,0,0,3.753,13.24,0.2,102.5093,3.282,3.282,3.278,100,0,0,0,282.7,65,65
"2022-09-22 01:23:00",3124567,0.42,354.2663,3.021241,0.02366432,0.47,0,0.152,314.1331,3.963786,0.0237206,0.18,0,-999,0,4.18,98.9,4.269,4.275,0.2,0,0,3.741,13.24,0.2,102.5161,3.281,3.282,3.279,100,0,0,0,282.7,65,65
"2022-09-22 01:24:00",3124568,0.498,358.8004,2.809363,0.01375984,0.52,0,0.1893334,328.8004,3.330174,0.01339983,0.21,0,-999,0,4.1,99.1,4.245,4.269,0.2,0,0,3.733,13.24,0.2,102.5117,3.28,3.28,3.278,100,0,0,0,282.7,65,65
"2022-09-22 01:25:00",3124569,0.4813333,359.4666,3.007778,0.01203698,0.5,0,0.1426666,339.329,5.532456,0.01730767,0.16,0,-999,0,4.107,99.1,4.206,4.235,0.2,0,0,3.721,13.24,0.2,102.5145,3.28,3.282,3.279,100,0,0,0,282.7,65,65
"2022-09-22 01:26:00",3124570,0.4413333,357.1324,3.179877,0.009568465,0.47,0,0.09466668,359.9977,4.484308,0.006182412,0.1,0,-999,0,4.1,99.1,4.196,4.219,0.2,0,0,3.698,13.23,0.2,102.5111,3.28,3.281,3.278,100,0,0,0,282.7,65,65
"2022-09-22 01:27:00",3124571,0.4266667,2.999776,1.751045,0.01659986,0.45,0,0.1026667,7.079909,8.043479,0.009977751,0.13,0,-999,0,4.1,98.8,4.195,4.203,0.2,0,0,3.698,13.23,0.2,102.5085,3.28,3.28,3.278,100,0,0,0,282.7,65,65
"2022-09-22 01:28:00",3124572,0.45,2.467177,2.728745,0.02097618,0.48,0,0.1606667,349.2029,4.084607,0.01878534,0.18,0,-999,0,4.1,98.7,4.191,4.172,0.2,0,0,3.687,13.25,0.2,102.5063,3.279,3.281,3.278,100,0,0,0,282.7,65,65
"2022-09-22 01:29:00",3124573,0.4953333,356.3995,2.939111,0.02362673,0.54,0,0.2166667,331.1322,2.445272,0.02674987,0.27,0,-999,0,4.113,98.9,4.167,4.155,0.2,0,0,3.678,13.24,0.2,102.5057,3.28,3.28,3.278,100,0,0,0,282.7,65,65
"2022-09-22 01:30:00",3124574,0.5153333,355.2665,2.204764,0.02654974,0.57,0,0.274,333,0.966146,0.004898974,0.28,0,-999,0,4.2,98.8,4.187,4.158,0.2,0,0,3.658,13.24,0.2,102.5053,3.279,3.28,3.278,100,0,0,0,282.7,64.99,65
"2022-09-22 01:31:00",3124575,0.5046667,351.7333,1.123581,0.01203697,0.52,0,0.3033333,332.6,1.082866,0.005962846,0.31,0,-999,0,4.2,98.3,4.195,4.146,0.2,0,0,3.654,13.24,0.2,102.5024,3.28,3.28,3.278,100,0,0,0,282.7,65,65
"2022-09-22 01:32:00",3124576,0.5213333,354.2,0.9794241,0.01024153,0.54,0,0.3186666,326.4682,4.176708,0.004988877,0.33,0,-999,0,4.193,98.4,4.209,4.146,0.2,0,0,3.639,13.24,0.2,102.5035,3.28,3.282,3.279,100,0,0,0,282.7,65,65
"2022-09-22 01:33:00",3124577,0.4766666,350.1333,1.309417,0.01398411,0.51,0,0.3813333,312.1997,2.006356,0.04587906,0.45,0,-999,0,4.147,99.2,4.277,4.19,0.2,0,0,3.633,13.23,0.2,102.5039,3.279,3.28,3.278,100,0,0,0,282.7,65,65
"2022-09-22 01:34:00",3124578,0.4926666,345.2,1.972991,0.01982142,0.52,0,0.4826666,303.6661,3.339761,0.02694851,0.55,0,-999,0,4.2,100.1,4.34,4.314,0.2,0,0,3.612,13.24,0.2,102.5046,3.278,3.28,3.278,100,0,0,0,282.7,65,65
"2022-09-22 01:35:00",3124579,0.5146667,343.6,1.199819,0.008055356,0.53,0,0.5426666,300.4664,2.18661,0.02143725,0.59,0,-999,0,4.253,100.1,4.382,4.377,0.2,0,0,3.612,13.23,0.2,102.5063,3.278,3.28,3.276,100,0,0,0,282.7,65,65
"2022-09-22 01:36:00",3124580,0.552,341.5332,1.927453,0.0132665,0.57,0,0.5726667,305.6,0.6110266,0.01436043,0.59,0,-999,0,4.3,99.6,4.379,4.371,0.2,0,0,3.611,13.24,0.2,102.5009,3.278,3.279,3.275,100,0,0,0,282.7,65,65
"2022-09-22 01:37:00",3124581,0.5133333,342.0666,1.730745,0.0157762,0.54,0,0.5226667,303.6001,1.583041,0.02174601,0.56,0,-999,0,4.28,99.7,4.345,4.321,0.2,0,0,3.596,13.23,0.2,102.503,3.274,3.279,3.274,100,0,0,0,282.7,65,65
"2022-09-22 01:38:00",3124582,0.5293334,339.7333,0.8537723,0.02743882,0.58,0,0.5106666,299.1328,2.390415,0.01913693,0.54,0,-999,0,4.2,99.8,4.276,4.25,0.2,0,0,3.592,13.24,0.2,102.507,3.275,3.279,3.275,100,0,0,0,282.7,65,65
"2022-09-22 01:39:00",3124583,0.5620001,339.4666,0.9568848,0.02925747,0.6,0,0.4653333,306,1.095267,0.01499629,0.49,0,-999,0,4.193,99.8,4.252,4.223,0.2,0,0,3.584,13.23,0.2,102.5056,3.275,3.278,3.275,100,0,0,0,282.7,64.99,65
"2022-09-22 01:40:00",3124584,0.536,336.8,1.326792,0.01704896,0.57,0,0.4599999,300.2674,3.990593,0.01154701,0.48,0,-999,0,4.2,99.7,4.251,4.226,0.2,0,0,3.569,13.24,0.2,102.5037,3.278,3.28,3.278,100,0,0,0,282.7,65,65
"2022-09-22 01:41:00",3124585,0.5193334,336.1333,1.087556,0.007717216,0.53,0,0.4853333,299.9345,2.619029,0.02654974,0.52,0,-999,0,4.2,99.6,4.217,4.223,0.2,0,0,3.569,13.25,0.2,102.5091,3.279,3.279,3.278,100,0,0,0,282.7,65,65
"2022-09-22 01:42:00",3124586,0.4839999,332.8,2.104078,0.0236079,0.51,0,0.5239999,302.2667,1.123146,0.01019804,0.54,0,-999,0,4.2,99.6,4.214,4.221,0.2,0,0,3.569,13.23,0.2,102.5056,3.278,3.279,3.275,100,0,0,0,282.7,65,65
"2022-09-22 01:43:00",3124587,0.4833333,333.3335,2.699719,0.007888111,0.5,0,0.4793333,299.7332,1.842582,0.03586393,0.54,0,-999,0,4.2,99.6,4.232,4.225,0.2,0,0,3.564,13.24,0.2,102.5061,3.279,3.28,3.278,100,0,0,0,282.7,64.99,65
"2022-09-22 01:44:00",3124588,0.5246667,331.2664,2.792007,0.02028683,0.55,0,0.4446667,299.5333,2.061196,0.01257864,0.46,0,-999,0,4.247,99.9,4.263,4.23,0.2,0,0,3.549,13.24,0.2,102.5042,3.278,3.28,3.278,100,0,0,0,282.7,65,65
"2022-09-22 01:45:00",3124589,0.5246666,328.4666,0.8056565,0.00956847,0.54,0,0.3913334,303.7341,4.265387,0.01024153,0.41,0,-999,0,4.3,100.1,4.278,4.24,0.2,0,0,3.549,13.23,0.2,102.5,3.278,3.28,3.275,100,0,0,0,282.7,65,65
"2022-09-22 01:46:00",3124590,0.544,326.2667,0.5726733,0.03261902,0.62,0,0.462,314.2003,2.663324,0.04445222,0.55,0,-999,0,4.3,100.2,4.279,4.225,0.2,0,0,3.543,13.25,0.2,102.5011,3.278,3.279,3.278,100,0,0,0,282.7,65,65
"2022-09-22 01:47:00",3124591,0.5933333,326.6,1.083047,0.01955051,0.63,0,0.5686666,314.6667,0.6994289,0.01146975,0.59,0,-999,0,4.3,100,4.299,4.268,0.2,0,0,3.526,13.23,0.2,102.4998,3.278,3.279,3.276,100,0,0,0,282.7,65,65